This is the latest recevied weather packets stored in our database for station/object XE3JAC-13. If no packets are shown the sender has not sent any weather packets the latest 10 day(s).
| Time | Temp. | Humidity | Pressure | Rain* | Wind** | Luminosity | Snow |
|---|---|---|---|---|---|---|---|
| 1777500940 | 30° C | 21% | 1007 hPa | 0 mm | - | - | - |
| 1777500040 | 30° C | 21% | 1007 hPa | 0 mm | - | - | - |
| 1777499139 | 30.56° C | 20% | 1007 hPa | 0 mm | - | - | - |
| 1777498239 | 30.56° C | 21% | 1008 hPa | 0 mm | - | - | - |
| 1777497338 | 31.67° C | 19% | 1008 hPa | 0 mm | - | - | - |
| 1777496438 | 32.22° C | 19% | 1008 hPa | 0 mm | - | - | - |
| 1777495538 | 31.67° C | 18% | 1008 hPa | 0 mm | - | - | - |
| 1777494637 | 31.67° C | 18% | 1008 hPa | 0 mm | - | - | - |
| 1777493737 | 31.11° C | 19% | 1009 hPa | 0 mm | - | - | - |
| 1777492836 | 30.56° C | 22% | 1009 hPa | 0 mm | - | - | - |
| 1777491936 | 30° C | 21% | 1009 hPa | 0 mm | - | - | - |
| 1777491036 | 30° C | 21% | 1010 hPa | 0 mm | - | - | - |
| 1777490135 | 30° C | 21% | 1011 hPa | 0 mm | - | - | - |
| 1777489235 | 30.56° C | 23% | 1011 hPa | 0 mm | - | - | - |
| 1777488334 | 30° C | 22% | 1011 hPa | 0 mm | - | - | - |
| 1777487434 | 28.89° C | 23% | 1011 hPa | 0 mm | - | - | - |
| 1777486534 | 28.89° C | 23% | 1012 hPa | 0 mm | - | - | - |
| 1777485633 | 29.44° C | 23% | 1012 hPa | 0 mm | - | - | - |
| 1777484733 | 27.22° C | 23% | 1012 hPa | 0 mm | - | - | - |
| 1777483832 | 27.22° C | 23% | 1013 hPa | 0 mm | - | - | - |
| 1777482932 | 27.22° C | 23% | 1014 hPa | 0 mm | - | - | - |
| 1777482032 | 26.67° C | 24% | 1014 hPa | 0 mm | - | - | - |
| 1777481131 | 26.11° C | 24% | 1014 hPa | 0 mm | - | - | - |
| 1777480231 | 25.56° C | 24% | 1014 hPa | 0 mm | - | - | - |
| 1777479330 | 25° C | 24% | 1015 hPa | 0 mm | - | - | - |
* Rain latest hour (hover to see other rain measurements)
** Current wind speed in m/s (hover to see current wind gust speed)